Wind_Speed
15 15 10 8 7 9 12 12 13 15 15 17 20 19 18 17 17 16 15 15 16 16 16 17 18 18 19 20 21 22 23 24 25 27 30 32 34 36 37 38 39 40 41 41
14 14 12 11 11 12 13 13 15 15 16 19 20 20 19 19 18 18 17 17 17 17 17 18 19 20 20 21 23 24 24 25 27 29 31 33 35 37 39 40 41 42 42 42
14 14 14 12 12 13 13 14 14 15 18 19 20 21 20 19 19 19 19 18 18 18 18 19 20 21 22 23 24 25 26 27 29 31 33 35 37 39 40 42 43 43 43 43
15 15 15 11 11 13 14 15 16 17 19 20 21 21 20 20 19 19 19 19 19 19 20 21 22 23 24 24 25 26 27 29 30 33 35 37 39 41 42 43 45 45 44 43
15 15 14 12 15 15 15 15 16 17 19 20 20 20 20 19 19 19 20 20 20 21 21 22 23 24 25 26 27 28 29 31 32 34 37 39 40 42 44 45 45 46 44 43
16 16 16 16 17 17 16 16 17 19 19 20 19 20 22 21 21 21 22 22 22 23 23 24 25 26 27 28 29 31 32 33 34 37 39 41 43 44 46 46 46 45 44 43
17 17 17 20 19 18 17 17 17 19 20 21 22 22 24 24 23 23 24 24 24 25 25 26 27 28 29 30 32 33 35 35 37 39 41 42 44 46 47 47 46 46 44 42
18 19 21 24 24 22 21 20 18 20 22 23 24 25 25 25 25 25 25 25 26 26 27 27 28 29 31 32 34 35 37 37 38 40 42 44 45 47 47 47 46 45 43 41
24 25 25 26 27 24 23 22 21 22 25 27 27 27 27 27 27 26 26 27 27 28 28 29 30 31 32 34 36 37 38 39 40 41 43 45 46 47 48 48 47 45 43 41
26 28 28 26 24 22 23 24 25 26 27 28 28 29 29 28 28 28 28 28 29 30 31 31 32 34 35 37 38 39 40 41 42 44 45 45 46 48 48 48 46 44 42 41
27 27 27 29 28 25 25 27 28 28 29 29 29 30 30 30 30 30 30 31 31 32 33 33 35 36 38 39 40 41 42 44 45 45 45 45 47 48 48 47 45 44 42 41
31 29 28 31 30 29 28 29 30 30 30 31 31 31 32 32 32 32 32 33 34 34 35 36 37 39 39 40 42 44 45 46 46 46 46 47 48 48 47 46 44 43 41 40
29 29 31 32 31 31 31 32 32 32 32 32 33 33 33 33 34 34 35 35 36 37 38 39 40 41 41 42 44 46 47 47 48 47 47 48 48 48 46 45 44 42 41 39
29 30 31 32 32 32 32 33 33 34 34 34 34 34 34 35 36 36 37 38 38 39 41 42 42 43 44 45 46 47 48 48 48 48 48 48 48 48 46 44 43 42 40 39
30 31 32 32 33 33 34 34 34 35 35 35 35 35 36 37 38 39 40 40 41 42 43 44 45 46 47 47 48 49 49 48 48 48 49 49 49 48 46 44 43 41 39 38
31 32 33 33 34 34 35 35 35 36 36 36 37 37 38 39 40 40 41 42 43 44 46 46 47 47 48 49 50 50 49 49 49 49 49 49 48 47 46 44 42 40 38 37
33 33 34 34 35 35 36 37 37 37 38 38 38 39 39 40 41 42 43 44 46 47 48 48 49 49 50 51 51 50 50 51 51 50 50 49 48 47 45 43 42 40 37 35
35 35 36 37 37 37 38 39 39 39 39 40 40 41 41 42 44 45 46 47 48 49 50 50 51 51 52 52 52 52 52 51 51 51 50 49 48 46 44 43 40 38 36 34
36 36 37 38 38 39 40 40 40 41 41 42 43 44 45 45 46 47 48 49 50 52 52 52 53 53 54 54 54 53 52 52 52 51 50 49 47 45 43 41 38 36 34 33
36 37 38 39 40 40 41 42 43 44 44 45 46 46 47 48 48 50 50 51 53 53 53 54 54 54 54 54 55 54 54 53 52 51 50 48 45 43 41 38 36 34 33 31
37 38 39 40 41 42 43 44 45 46 46 47 48 49 50 50 51 52 53 53 54 54 55 55 55 56 56 55 55 54 53 52 50 49 47 44 42 40 37 35 32 31 31 29
39 40 41 42 43 44 45 46 47 48 48 49 50 51 52 52 53 53 54 55 56 56 55 55 56 56 55 55 54 53 51 50 48 46 43 41 38 36 34 32 30 29 28 27
42 43 44 44 45 46 47 48 49 49 50 51 51 52 52 53 53 54 54 55 56 56 55 55 55 54 53 52 51 50 48 47 44 41 39 37 35 32 31 30 28 27 25 23
44 45 46 46 47 48 49 49 50 50 51 52 52 53 53 54 54 54 55 55 55 54 54 53 52 51 50 49 47 45 43 41 39 37 34 33 31 29 28 26 25 24 22 20
46 46 47 48 48 49 49 50 50 51 51 52 52 53 53 54 54 54 54 53 53 52 50 49 48 47 46 44 43 41 39 36 34 32 30 29 27 26 25 24 22 21 20 19
46 47 47 48 48 49 49 50 50 50 51 51 51 51 51 51 51 51 50 49 48 48 46 45 44 43 41 40 38 36 34 31 30 28 27 26 24 23 22 20 20 19 18 17
46 46 47 47 48 48 48 48 48 48 48 48 48 47 47 47 47 46 45 45 44 43 42 40 40 38 36 34 32 30 28 27 26 24 23 22 21 20 19 19 18 17 15 15
Wind_Direction
266 271 272 271 267 255 263 267 266 273 284 286 287 293 293 295 297 297 299 301 305 308 310 313 316 319 321 322 323 323 324 324 324 325 327 327 328 328 327 326 325 324 323 321
269 273 273 271 269 259 257 262 265 266 267 270 278 285 289 292 294 295 298 300 302 305 307 309 312 315 317 318 320 320 321 321 323 324 326 327 328 328 328 327 326 325 324 322
266 260 256 252 255 259 260 260 260 261 263 267 274 282 287 289 290 293 295 297 301 303 305 308 310 312 314 316 317 318 318 319 320 322 325 326 327 327 328 328 327 325 324 323
266 255 254 244 245 253 256 256 256 259 267 272 275 281 285 286 288 290 292 295 298 300 303 306 308 310 311 313 315 316 316 317 318 321 324 326 327 327 327 327 327 326 325 323
265 256 251 249 245 247 256 261 260 261 266 273 279 284 287 288 291 292 293 295 297 298 301 304 307 308 310 312 314 315 315 316 317 320 323 326 327 327 328 327 327 327 325 324
264 259 258 259 256 254 258 260 261 265 269 274 281 286 289 293 296 295 295 296 296 297 299 302 305 307 309 310 312 315 316 316 317 319 322 324 326 327 327 327 327 327 326 324
264 258 257 256 256 258 254 254 259 264 269 274 280 284 289 293 294 295 295 296 296 296 297 300 303 305 306 308 311 314 315 315 316 319 320 322 324 326 327 327 327 327 326 324
264 256 251 254 256 252 254 258 261 266 273 279 282 285 287 289 291 292 293 294 294 295 296 299 302 304 306 308 310 312 313 314 316 318 319 321 323 325 326 326 326 326 325 323
259 257 255 251 253 256 260 268 274 276 278 281 283 285 287 289 289 290 291 293 294 294 296 298 300 303 306 308 310 311 313 314 315 317 318 320 322 323 324 325 325 325 324 323
261 265 267 262 262 264 270 274 277 277 277 279 281 284 286 287 287 289 290 292 293 295 297 299 301 302 304 307 308 310 312 313 314 315 316 318 320 322 324 324 324 324 324 323
263 267 267 268 272 273 273 274 272 273 276 278 280 282 284 286 288 288 289 292 293 294 296 298 301 302 303 305 307 309 311 312 312 314 315 316 319 322 323 324 323 323 323 322
264 267 268 269 270 272 273 273 273 275 276 277 279 280 282 284 285 286 288 290 292 294 296 298 300 302 303 304 308 309 309 309 311 313 314 316 318 321 322 322 322 322 322 322
266 267 268 269 271 273 274 274 275 275 276 277 278 280 281 282 283 285 286 289 291 293 295 297 297 300 302 303 307 309 310 310 311 313 313 315 317 319 320 320 320 320 321 320
266 267 268 269 271 273 274 274 275 276 277 277 278 279 280 281 282 284 286 288 290 291 294 296 297 300 302 303 305 306 307 308 310 311 311 314 316 317 318 318 318 319 319 319
267 268 268 269 271 272 273 274 276 276 277 278 279 279 280 281 282 284 286 288 290 291 293 295 297 299 301 302 303 305 306 307 309 310 311 312 314 315 316 316 316 316 316 316
266 268 270 271 272 273 275 276 277 278 279 280 280 281 282 283 284 285 287 289 290 292 293 295 297 298 299 301 302 303 304 306 308 308 309 309 311 312 313 313 314 314 314 314
269 270 272 273 274 275 276 277 279 280 281 282 283 284 284 285 285 286 287 289 290 291 292 294 296 298 298 299 301 302 303 304 305 305 306 306 307 308 309 310 311 311 311 311
271 272 274 275 276 277 278 280 281 282 283 284 285 285 286 286 287 287 288 290 290 291 293 295 296 297 297 298 299 300 301 302 302 303 303 304 304 305 306 306 306 308 308 308
273 274 275 277 278 279 281 282 284 284 285 285 286 286 287 287 288 289 289 290 291 292 293 294 295 296 296 297 298 298 299 299 299 300 300 301 301 301 302 302 303 304 304 305
275 276 277 278 280 281 283 284 285 286 286 287 287 288 288 289 289 290 290 291 291 292 293 294 294 295 295 295 296 297 297 297 297 297 297 298 298 298 298 299 299 300 301 302
277 278 280 281 282 283 284 285 286 286 287 287 288 289 289 290 290 290 291 291 292 293 294 294 294 294 294 294 295 295 295 295 295 295 295 295 295 295 295 296 296 297 298 300
279 280 281 282 283 284 284 285 286 286 287 288 289 289 290 290 291 291 292 292 293 293 294 294 294 294 294 294 294 294 293 293 293 293 292 292 293 292 291 291 291 293 295 296
281 282 282 283 284 285 285 286 287 288 288 289 290 290 291 292 292 293 293 293 294 294 294 294 294 294 294 294 293 293 292 292 291 290 289 289 288 287 286 287 288 289 291 292
282 283 283 284 285 285 286 287 288 289 289 290 291 292 292 293 293 293 294 294 294 294 294 294 294 293 293 294 293 293 292 291 289 287 286 285 284 283 282 283 283 285 287 287
283 284 284 285 286 287 288 288 289 290 291 292 292 293 293 294 295 295 296 295 295 295 295 295 294 294 293 292 292 291 290 289 287 284 283 281 280 277 276 277 278 279 282 284
284 285 286 287 287 288 289 289 290 291 292 292 293 294 294 295 296 296 296 296 296 296 295 295 295 294 292 292 291 290 288 285 283 282 280 278 275 272 270 269 270 273 277 281
286 286 287 288 289 289 290 291 291 292 293 293 294 295 295 295 296 296 297 297 297 296 295 295 294 294 293 292 290 288 285 283 282 280 278 276 271 268 266 263 264 267 272 277
Height
5852 5851 5850 5852 5853 5854 5856 5857 5857 5856 5855 5853 5851 5851 5851 5849 5849 5848 5847 5846 5845 5843 5841 5840 5838 5836 5833 5831 5829 5826 5823 5819 5816 5812 5808 5803 5798 5792 5786 5780 5774 5768 5762 5756
5849 5848 5847 5849 5850 5852 5853 5853 5854 5853 5853 5850 5849 5848 5848 5847 5846 5845 5843 5842 5841 5840 5838 5836 5834 5832 5830 5827 5825 5821 5818 5815 5811 5807 5802 5797 5792 5786 5780 5773 5767 5760 5753 5747
5845 5845 5844 5847 5848 5849 5849 5849 5850 5849 5848 5846 5846 5845 5845 5844 5843 5841 5840 5838 5837 5836 5834 5832 5830 5828 5826 5823 5820 5817 5813 5809 5805 5801 5796 5791 5785 5779 5772 5766 5759 5752 5745 5738
5840 5841 5841 5844 5844 5844 5844 5844 5845 5844 5843 5843 5842 5841 5840 5839 5839 5837 5836 5835 5833 5832 5830 5828 5826 5823 5821 5818 5815 5811 5808 5804 5799 5795 5790 5784 5778 5771 5765 5758 5750 5743 5736 5729
5836 5835 5836 5838 5838 5838 5839 5839 5839 5839 5838 5838 5837 5837 5836 5835 5834 5833 5832 5830 5829 5827 5825 5823 5821 5818 5815 5812 5809 5805 5801 5797 5793 5788 5782 5777 5770 5764 5757 5749 5742 5734 5727 5720
5832 5832 5832 5833 5833 5832 5834 5834 5834 5834 5834 5833 5833 5832 5831 5830 5829 5828 5827 5825 5823 5822 5820 5818 5815 5812 5809 5806 5803 5799 5795 5790 5785 5780 5775 5769 5762 5755 5748 5741 5733 5726 5718 5711
5827 5828 5828 5827 5826 5828 5829 5829 5828 5829 5828 5828 5827 5827 5826 5824 5823 5823 5821 5819 5818 5816 5814 5812 5809 5806 5803 5800 5796 5792 5788 5783 5778 5773 5767 5761 5754 5747 5740 5732 5725 5717 5710 5703
5822 5822 5824 5821 5822 5822 5822 5822 5822 5823 5823 5821 5821 5820 5820 5818 5817 5817 5815 5813 5812 5810 5807 5805 5803 5800 5796 5793 5789 5785 5780 5775 5770 5765 5758 5752 5746 5738 5731 5724 5716 5709 5702 5695
5816 5817 5814 5813 5814 5813 5815 5816 5816 5818 5817 5816 5815 5814 5813 5812 5811 5810 5808 5807 5805 5803 5800 5798 5795 5792 5789 5785 5781 5777 5772 5767 5762 5756 5750 5743 5737 5730 5722 5715 5708 5700 5693 5687
5810 5809 5808 5806 5805 5806 5809 5811 5811 5811 5811 5810 5809 5807 5806 5805 5804 5802 5801 5799 5797 5795 5792 5790 5787 5784 5781 5777 5773 5768 5763 5758 5753 5747 5741 5735 5728 5721 5713 5706 5699 5691 5685 5678
5804 5803 5803 5801 5801 5802 5803 5805 5804 5804 5803 5803 5802 5800 5799 5797 5796 5795 5793 5791 5789 5786 5784 5781 5779 5775 5771 5768 5763 5759 5754 5749 5743 5738 5732 5726 5719 5712 5705 5697 5690 5683 5677 5670
5797 5797 5797 5796 5796 5796 5796 5796 5796 5796 5796 5795 5794 5792 5790 5789 5788 5786 5785 5782 5780 5778 5775 5772 5769 5766 5762 5758 5754 5749 5744 5738 5733 5727 5722 5716 5709 5703 5695 5689 5682 5675 5668 5662
5790 5791 5790 5789 5789 5788 5789 5789 5788 5787 5787 5786 5785 5784 5782 5781 5779 5777 5775 5773 5771 5769 5766 5763 5759 5756 5752 5748 5743 5739 5733 5728 5723 5717 5711 5705 5699 5693 5687 5680 5673 5667 5661 5655
5783 5783 5782 5782 5782 5781 5781 5780 5779 5778 5778 5777 5776 5775 5773 5771 5770 5768 5766 5764 5761 5758 5755 5752 5749 5745 5741 5737 5733 5728 5723 5718 5712 5707 5701 5695 5689 5683 5677 5671 5665 5659 5653 5647
5775 5774 5774 5774 5773 5773 5772 5771 5770 5769 5768 5768 5767 5765 5764 5762 5760 5758 5755 5753 5750 5748 5745 5741 5738 5734 5730 5726 5722 5717 5712 5706 5701 5696 5690 5685 5679 5673 5668 5662 5656 5650 5645 5640
5766 5765 5765 5765 5764 5764 5763 5762 5761 5760 5759 5758 5757 5755 5753 5752 5749 5747 5745 5742 5739 5736 5733 5729 5726 5722 5718 5714 5709 5705 5700 5695 5689 5684 5679 5674 5669 5663 5658 5652 5647 5642 5637 5632
5756 5756 5756 5756 5755 5754 5753 5752 5751 5750 5749 5747 5746 5744 5742 5740 5738 5736 5733 5730 5727 5724 5720 5717 5714 5710 5705 5701 5697 5692 5688 5683 5678 5673 5668 5663 5658 5653 5648 5643 5638 5633 5628 5624
5748 5747 5747 5746 5745 5745 5743 5742 5741 5740 5738 5737 5735 5733 5731 5728 5726 5723 5720 5717 5714 5711 5707 5704 5700 5696 5692 5687 5683 5679 5674 5670 5665 5660 5656 5651 5646 5642 5637 5633 5628 5624 5620 5616
5739 5738 5737 5736 5735 5734 5733 5731 5730 5728 5727 5725 5723 5721 5718 5716 5713 5710 5707 5704 5700 5697 5694 5690 5686 5682 5678 5673 5669 5665 5660 5656 5652 5647 5643 5638 5634 5630 5626 5622 5618 5615 5611 5607
5729 5728 5727 5726 5725 5723 5722 5720 5718 5716 5714 5712 5710 5707 5705 5702 5699 5696 5693 5689 5685 5682 5679 5675 5671 5667 5663 5659 5654 5650 5646 5642 5638 5633 5629 5625 5622 5618 5615 5612 5608 5605 5602 5599
5719 5718 5717 5715 5714 5712 5710 5708 5706 5703 5701 5699 5696 5693 5690 5687 5684 5681 5677 5674 5670 5667 5663 5659 5654 5650 5646 5642 5638 5634 5630 5626 5623 5619 5616 5612 5609 5606 5604 5601 5599 5596 5593 5591
5708 5707 5705 5703 5701 5699 5697 5695 5692 5690 5687 5684 5681 5678 5675 5672 5668 5665 5661 5657 5653 5650 5647 5642 5638 5634 5629 5626 5622 5618 5614 5611 5608 5605 5602 5600 5597 5595 5593 5591 5589 5588 5585 5583
5696 5695 5693 5691 5688 5686 5684 5681 5678 5676 5673 5670 5666 5663 5660 5656 5653 5649 5645 5641 5637 5633 5629 5625 5621 5616 5613 5609 5605 5602 5598 5596 5593 5591 5589 5588 5586 5585 5583 5582 5580 5579 5578 5576
5683 5681 5679 5677 5675 5672 5670 5667 5664 5661 5657 5654 5651 5647 5644 5640 5637 5633 5628 5624 5620 5616 5612 5608 5604 5600 5596 5593 5589 5586 5584 5581 5579 5578 5577 5576 5575 5574 5573 5573 5572 5571 5570 5569
5670 5667 5665 5663 5660 5657 5655 5652 5649 5646 5642 5639 5635 5631 5627 5623 5620 5616 5611 5607 5603 5599 5595 5592 5588 5585 5581 5578 5575 5573 5570 5569 5567 5566 5565 5565 5565 5564 5564 5564 5564 5564 5563 5562
5656 5653 5651 5648 5645 5643 5640 5637 5634 5630 5627 5623 5620 5616 5612 5608 5604 5599 5595 5591 5587 5583 5580 5577 5573 5570 5567 5564 5562 5560 5558 5557 5556 5555 5555 5555 5555 5556 5556 5556 5557 5557 5556 5556
5642 5639 5636 5634 5631 5628 5625 5622 5619 5615 5612 5608 5605 5601 5597 5593 5589 5585 5581 5577 5573 5570 5566 5563 5560 5557 5555 5552 5550 5549 5547 5547 5546 5546 5546 5546 5547 5548 5549 5549 5550 5550 5551 5551